Regional Weather Roundup
Issued by NWS

Home | Current Version | Previous Version | Graphics & Text | Print | Product List | Glossary On
Versions: 1 2 3 4 5 6 7 8 9 10 11 12 13 14 15 16 17 18 19 20 21 22 23 24 25 26 27 28 29 30 31 32 33 34 35 36 37 38 39 40 41 42 43 44 45 46 47 48 49 50
000
ASUS43 KMKX 241900
RWRWI

WISCONSIN REGIONAL WEATHER ROUNDUP
NATIONAL WEATHER SERVICE MILWAUKEE/SULLIVAN WI
100 PM CST WED DEC 24 2014

NOTE: "FAIR" INDICATES FEW OR NO CLOUDS BELOW 12,000 FEET WITH NO
SIGNIFICANT WEATHER AND/OR OBSTRUCTIONS TO VISIBILITY.

WIZ001-002-006>008-014>016-023>028-242000-
NORTHWEST WISCONSIN

CITY           SKY/WX    TMP DP  RH WIND       PRES   REMARKS
SUPERIOR ARPT  CLOUDY    36  30  81 NW5       29.66F WCI  32
ASHLAND        CLOUDY    33  32  96 N5        29.62F WCI  29
HAYWARD        CLOUDY    34  31  88 VRB5      29.61F WCI  30
SIREN          CLOUDY    35  32  90 NW6       29.66F WCI  30
CUMBERLAND     CLOUDY    32  30  93 N7        29.63F WCI  26
RICE LAKE      CLOUDY    34  31  88 NW6       29.64F WCI  29
CHETEK         CLOUDY    34  32  93 NW5       29.62F WCI  30
LADYSMITH      CLOUDY    34  32  91 N7        29.61F WCI  28
EAU CLAIRE     CLOUDY    36  31  82 NW8       29.60F WCI  30
MENOMONIE      CLOUDY    36  32  85 NW8       29.63F WCI  30
NEW RICHMOND   CLOUDY    35  32  89 NW6       29.66F WCI  30
OSCEOLA        CLOUDY    36  34  93 N6        29.69F WCI  31
$$

WIZ003>005-009-010-017-018-242000-
NORTH CENTRAL WISCONSIN

CITY           SKY/WX    TMP DP  RH WIND       PRES   REMARKS
MANITOWISH WTR CLOUDY    31  29  93 N7        29.55F WCI  24
ARBOR VITAE    CLOUDY    32  29  88 N8        29.55F WCI  25
WOODRUFF       CLOUDY    32  29  88 N8        29.55F WCI  25
RHINELANDER    CLOUDY    31  28  89 NW6       29.53F WCI  25
EAGLE RIVER    CLOUDY    31  30  94 N5        29.53F WCI  27
LAND O LAKES   LGT SNOW  31  29  92 N5        29.55F WCI  26
PHILLIPS       CLOUDY    32  29  89 N5        29.57F WCI  27
TOMAHAWK       CLOUDY    32  29  90 CALM      29.55F
MEDFORD        CLOUDY    32  28  86 N9        29.55F WCI  24
MERRILL        CLOUDY    33  32  95 N5        29.54F WCI  28
$$

WIZ029-030-035-036-043>047-242000-
CENTRAL WISCONSIN

CITY           SKY/WX    TMP DP  RH WIND       PRES   REMARKS
WAUSAU         CLOUDY    34  31  88 N8        29.52F WCI  27
MOSINEE        CLOUDY    34  34 100 N8        29.54F WCI  27
MARSHFIELD     CLOUDY    35  30  82 N12       29.54F WCI  27
STEVENS POINT  CLOUDY    32  32  99 N5        29.54F WCI  27
WAUPACA        LGT RAIN  35  34  95 CALM      29.54F
WAUTOMA        NOT AVBL
WISC RAPIDS    CLOUDY    35  31  85 N7        29.55F WCI  29
CAMP DOUGLAS   CLOUDY    34  34 100 N7        29.55F WCI  28
$$

WIZ011>013-019>022-031-037>040-048>050-242000-
NORTHEAST WISCONSIN

CITY           SKY/WX    TMP DP  RH WIND       PRES   REMARKS
ANTIGO         CLOUDY    32  31  95 N10       29.52F WCI  23
SHAWANO        CLOUDY    36  35  96 N5        29.54F WCI  32
OCONTO         CLOUDY    34  34 100 N3        29.53F
STURGEON BAY   CLOUDY    36  32  87 N9        29.52F VSB 3/4 WCI  29
GREEN BAY      CLOUDY    35  34  96 NW6       29.52F FOG     WCI  30
MANITOWOC      NOT AVBL
APPLETON       NOT AVBL
CLINTONVILLE   DRIZZLE   34  34 100 N3        29.54F
OSHKOSH        FOG       35  33  92 NW6       29.51F VSB 3/4 WCI  30
$$

WIZ032>034-041-042-053>061-242000-
SOUTHWEST WISCONSIN

CITY           SKY/WX    TMP DP  RH WIND       PRES   REMARKS
LA CROSSE      CLOUDY    38  32  79 NW8       29.59F WCI  32
SPARTA         CLOUDY    35  33  94 NW6       29.59F WCI  30
VIROQUA        CLOUDY    33  33 100 N8        29.56F WCI  25
BOSCOBEL       CLOUDY    37  32  82 N6        29.57F WCI  32
PRAIRIE DU CHI CLOUDY    36  32  84 NW8       29.59F WCI  30
PLATTEVILLE    CLOUDY    35  32  90 CALM      29.56F
$$

WIZ056-057-062-063-064-067-068-242000-
SOUTH CENTRAL WISCONSIN

CITY           SKY/WX    TMP DP  RH WIND       PRES   REMARKS
REEDSBURG      DRIZZLE   33  32  98 N7        29.54F WCI  27
BARABOO/DELLS  DRIZZLE   33  33  99 NW5       29.54F WCI  28
LONE ROCK      NOT AVBL
MINERAL POINT  CLOUDY    34  34 100 NW8       29.54F WCI  27
MADISON        LGT RAIN  36  34  92 N3        29.52F FOG
MIDDLETON      CLOUDY    36  36 100 N3        29.53F
WATERTOWN      FOG       35  35 100 NW8       29.51F VSB 1/2 WCI  28
MONROE         CLOUDY    34  34 100 NW5       29.52F WCI  30
JANESVILLE     CLOUDY    37  36  93 NW7       29.51F FOG     WCI  32
$$

WIZ051-052-058>065-066-070>072-242000-
SOUTHEAST WISCONSIN

CITY           SKY/WX    TMP DP  RH WIND       PRES   REMARKS
MILWAUKEE      CLOUDY    40  34  79 NW8       29.49F WCI  34
WAUKESHA       CLOUDY    36  36 100 NW6       29.50F WCI  31
MILWAUKEE/TIMM CLOUDY    39  34  81 CALM      29.50F
RACINE         CLOUDY    39  35  86 NW6       29.50F WCI  35
BURLINGTON     CLOUDY    35  34  96 NW7       29.51F WCI  29
KENOSHA        CLOUDY    39  36  89 NW7       29.49F WCI  34
FOND DU LAC    FOG       36  34  92 N7        29.51F VSB 1/2 WCI  30
SHEBOYGAN      LGT RAIN  38  35  89 NW9       29.49F WCI  31
WEST BEND      CLOUDY    36  34  93 NW7       29.50F WCI  30
JUNEAU         FOG       34  34 100 NW5       29.53F VSB 1/4 WCI  30
$$

LSZ147-162-242000-
LAKE SUPERIOR

STATION/POSITION TIME  TEMP    WIND        PRES    WAVE
                       AIR SEA DIR/SP/G            HT/PER
                 (UTC) (F)     (DEG/KT/KT) (MB)    (FT/S)
DEVILS ISLAND    1800   33      70/  6/  7 1005.3F
PORT WING        1800   36      30/  6/  7 1005.1F
SAXON HARBOR     1800   33      CALM  /  4 1004.4F
$$

LMZ867-665-643>646-242000-
LAKE MICHIGAN

STATION/POSITION TIME  TEMP    WIND        PRES    WAVE
                       AIR SEA DIR/SP/G            HT/PER
                 (UTC) (F)     (DEG/KT/KT) (MB)    (FT/S)
CHAMBERS ISLAND  1800   35     320/  6/  7 1001.4F
NORTHPORT PIER   1800   35     330/  7/  7 1000.7F
SISTER BAY       1743           10/  1/  3   N/A
ALGOMA LAKESHORE 1800          330/  5/  6   N/A
KEWAUNEE LAKESHO 1818   37     340/  2/  5  999.3F
SHEBOYGAN LAKESH 1800   38 36  350/  5/  6 1000.4F
PORT WASHINGTON  1800   38     320/  5/  7 1000.7F
MILWAUKEE LAKESH 1800   38     340/  4/  6   N/A
KENOSHA   LAKESH 1800   39     290/  7/  9 1000.0F
$$

TC  - TEMPERATURE IN CELSIUS
VSB - VISIBILITY IN STATUTE MILES
WCI - WIND CHILL INDEX
HX  - HEAT INDEX



USA.gov is the U.S. government's official web portal to all federal, state and local government web resources and services.